Regional Weather Roundup
Issued by NWS Mt. Holly, NJ

Home | Current Version | Previous Version | Text Only | Print | Product List | Glossary On
Versions: 1 2 3 4 5 6 7 8 9 10 11 12 13 14 15 16 17 18 19 20 21 22 23 24 25 26 27 28
000
ASUS41 KPHI 191911
RWRPHI

REGIONAL WEATHER ROUNDUP
NATIONAL WEATHER SERVICE MOUNT HOLLY NJ
200 PM EST SUN FEB 19 2017

NOTE:  "FAIR" INDICATES FEW OR NO CLOUDS BELOW 12,000 FEET WITH NO
SIGNIFICANT WEATHER AND/OR OBSTRUCTIONS TO VISIBILITY.

 * = STATION DOES NOT REPORT PRECIPITATION (E.G. RAIN, SNOW, ETC.)
        OR FOG.

NJZ015>026-192000-
SOUTHERN NEW JERSEY

CITY           SKY/WX    TMP DP  RH WIND       PRES   REMARKS
POMONA         CLOUDY    69  37  30 NW13      29.82F
WILDWOOD*      SUNNY     64  43  46 W10       29.86F
MILLVILLE      CLOUDY    68  43  40 NW8G17    29.84S
WRIGHTSTOWN    MOSUNNY   68  36  31 NW10      29.80F
MOUNT HOLLY    SUNNY     68  35  29 W12       29.83F
TRENTON        SUNNY     67  36  31 W14G22    29.81F

$$
NJZ001>014-192000-
NORTHERN NEW JERSEY

CITY           SKY/WX    TMP DP  RH WIND       PRES   REMARKS
SUSSEX         SUNNY     61  34  36 W10G17    29.80F
ANDOVER*         N/A     60  33  36 CALM      29.82S
MORRISTOWN     MOSUNNY   66  37  34 NW9G18    29.80F
NEWARK         MOSUNNY   67  36  31 W10G22    29.79F
TETERBORO      SUNNY     64  35  34 NW14      29.79S
CALDWELL       SUNNY     64  31  28 NW12G22   29.80F
SOMERVILLE     SUNNY     66  30  26 NW14G22   29.80S
ALLAIRE*       MOSUNNY   70  35  27 W20       29.81F
TOMS RIVER*    CLOUDY    67  37  33 W13       29.82F

$$
PAZ043-044-047-054-055-060>062-066>071-192000-
EASTERN PENNSYLVANIA

CITY           SKY/WX    TMP DP  RH WIND       PRES   REMARKS
PHILADELPHIA   MOSUNNY   68  39  34 W12G24    29.84S
NORTH PHILA    SUNNY     69  36  29 NW8G18    29.84F
BLUE BELL*     SUNNY     64  39  39 W6        29.83S
DOYLESTOWN     SUNNY     70  36  28 VRB7      29.82F
QUAKERTOWN*    SUNNY     66  32  28 N8G18     29.84S
PERKASIE*      FAIR      64  36  34 W14G21    29.84F
POTTSTOWN      SUNNY     66  33  29 NW15      29.85F
LANCASTER      SUNNY     67  41  38 W10G20    29.85S
COATESVILLE    SUNNY     66  39  37 NW14      29.87S
READING        SUNNY     67  39  35 W10       29.84F
ALLENTOWN      SUNNY     66  35  31 W10       29.83S
MOUNT POCONO   SUNNY     53  36  52 W13       29.82S
HAZLETON       SUNNY     61  37  41 W10G18    29.88S
LEHIGHTON      FAIR      63  32  31 NW9       29.85S
WILKES BARRE   SUNNY     61  39  44 SW7       29.82F

$$
DEZALL-MDZ008-012-015-019-020-192000-
DELAWARE AND EASTERN MARYLAND

CITY           SKY/WX    TMP DP  RH WIND       PRES   REMARKS
WILMINGTON     SUNNY     70  37  29 NW18      29.86S
DOVER          MOSUNNY   69  46  43 NW10      29.84S
GEORGETOWN     SUNNY     69  42  37 VRB5      29.86F
ABERDEEN       SUNNY     71  40  32 NW10      29.87S
PATUXENT       MOSUNNY   69  48  47 NW9       29.89S
OCEAN CITY     CLOUDY    66  43  43 VRB6      29.87S
WALLOPS ISLAND CLOUDY    65  45  48 NW9       29.89S
CAMBRIDGE      SUNNY     64  43  45 NW8       29.89R
SALISBURY      SUNNY     68  44  42 MISG      29.87F

$$
PAZ001-021-NYZ056-072-MDZ011-DCZ001-192000-
OTHER NEARBY LOCATIONS

CITY           SKY/WX    TMP DP  RH WIND       PRES   REMARKS
HARRISBURG     MOSUNNY   67  38  34 W14       29.86S
STATE COLLEGE  SUNNY     63  32  31 W17G25    29.89S
WILLIAMSPORT   SUNNY     66  38  35 W12       29.84F
BINGHAMTON     SUNNY     52  30  43 NW15G22   29.82S
NEW YORK CITY  MOSUNNY   64  33  31 VRB7      29.81F
BALTIMORE      MOSUNNY   69  42  37 W12G21    29.88S
WASHINGTON DC  MOSUNNY   70  44  39 W15       29.91S

$$




USA.gov is the U.S. government's official web portal to all federal, state and local government web resources and services.